sat.trackr.live / text

‹ back to catalog

KUIPER-00019

NORAD 63734 · 2025-088L

PAYLOAD ACTIVE UNKNOWN

§ Identity

Operator
Country
US
Launch date
2025-04-28
Launch site
AFETR
Launch vehicle
Mass (kg)
RCS (m²)

External: N2YO · Heavens-Above · Gunter

§ Orbital elements

Epoch: 2026-09-21T10:48:59.294592Z

Period
97.30 min
Inclination
51.9016°
Eccentricity
0.0000174
Mean motion
14.79936426 rev/d
Perigee alt
629.4 km
Apogee alt
629.6 km
Semi-major
7,007.7 km
B*
1.1346e-4
RAAN
313.7080°
Arg perigee
12.1785°
Mean anomaly
347.9181°
Rev number
7,649

§ Raw data

KUIPER-000191 63734U 25088L   26264.45068628  .00000644  00000+0  11346-3 0  99962 63734  51.9016 313.7080 0000174  12.1785 347.9181 14.79936426 76495

JSON: /api/v1/satellites/63734 · /tle

For live sub-satellite position, see the globe view (requires WebGL).

§ Visibility from observer

Set your observer location to see the next 7 days of passes ≥ 10°. The values pass through the URL so the page stays shareable.

No JS? Fill the form by hand. The geolocation button needs JavaScript.